Regional Weather Roundup
Issued by NWS Cleveland, OH

Home | Current Version | Previous Version | Text Only | Print | Product List | Glossary Off
Versions: 1 2 3 4 5 6 7 8 9 10 11 12 13 14 15 16 17 18 19 20 21 22 23 24 25 26 27 28 29 30 31 32 33 34 35 36 37 38 39 40 41 42 43 44 45 46 47 48 49 50

000
ASUS41 KCLE 271300
RWRCLE
OHIO REGIONAL WEATHER ROUNDUP
NATIONAL WEATHER SERVICE WILMINGTON, OH
900 AM EDT WED AUG 27 2014

NOTE: "FAIR" INDICATES FEW OR NO CLOUDS BELOW 12,000 FEET WITH NO
SIGNIFICANT WEATHER AND/OR OBSTRUCTIONS TO VISIBILITY.

OHZ001>008-015>018-024>027-034-035-043-044-271400-
   NORTHWEST OHIO

CITY           SKY/WX    TMP DP  RH WIND       PRES   REMARKS
DEFIANCE       LGT RAIN  71  65  81 N5        30.12R
FINDLAY        CLOUDY    71  69  93 NW3       30.10S FOG
TOLEDO EXPRESS CLOUDY    68  66  93 N3        30.11S FOG
TOLEDO METCALF PTSUNNY   73  67  81 N3        30.11S
LIMA           PTSUNNY   73  70  90 CALM      30.11S FOG
$$

OHZ009>014-019>023-028>033-038-089-271400-
   NORTHEAST OHIO

CITY           SKY/WX    TMP DP  RH WIND       PRES   REMARKS
CLE-HOPKINS    PTSUNNY   74  69  85 CALM      30.10F HAZE
CLE-LAKEFRONT  CLOUDY    74  69  85 N3        30.08S
CUY CO. ARPT   CLOUDY    75  72  88 N6        30.10S FOG
LORAIN-ELYRIA  MOSUNNY   77  70  79 CALM      30.10S HAZE
ASHTABULA      CLOUDY    71  69  93 N5        30.10R FOG
AKRON-CANTON   PTSUNNY   75  68  78 CALM      30.11R HAZE
WOOSTER        NOT AVBL
MANSFIELD      CLOUDY    72  71  97 CALM      30.12S FOG
YOUNGSTOWN     CLOUDY    72  68  87 CALM      30.10S
$$

OHZ042-051>053-060>062-070>072-077>081-271400-
  SOUTHWEST OHIO

CITY           SKY/WX    TMP DP  RH WIND       PRES   REMARKS
CINC-COVINGTON MOSUNNY   76  71  85 CALM      30.11S
CINC-LUNKEN    SUNNY     74  71  91 CALM      30.11R
HAMILTON       SUNNY     76  71  85 CALM      30.11S
DAYTON         NOT AVBL
WRIGHT-PAT AFB MOSUNNY   73  71  93 CALM      30.11R
DAYTON GENERAL SUNNY     75  70  84 CALM      30.11R
WILMINGTON     SUNNY     75  68  78 W5        30.11S
$$

OHZ036-037-039>041-045>050-054>059-063>069-073>076-082>088-271400-
  CENTRAL AND SOUTHEAST OHIO

CITY           SKY/WX    TMP DP  RH WIND       PRES   REMARKS
COLUMBUS       MOSUNNY   76  67  73 W3        30.10R
OSU AIRPORT    MOSUNNY   74  68  81 CALM      30.10S
BOLTON FIELD   SUNNY     72  70  94 CALM      30.11S
RICKENBACK AFB NOT AVBL
NEWARK         SUNNY     73  67  81 S3        30.10S
MARION         FOG       70  69  97 VRB3      30.11S VSB 1/4
LANCASTER      MOSUNNY   74  67  78 CALM      30.11S
ZANESVILLE     SUNNY     72  66  81 CALM      30.10S
NEW PHILLY     PTSUNNY   72  69  90 CALM      30.11R
$$



USA.gov is the U.S. government's official web portal to all federal, state and local government web resources and services.